PEGASUS DEB

Satellite information

Favourite Embed

Satellite Type and Status

DEBRISIN ORBIT

Key statistics

Satellite PEGASUS DEB at a glance.

Uptime

11372

Days in orbit

Revolutions

≈ 14.3

Per day

Orbit

LEO

Low Earth Orbit

Inclination

81.3

Latest

Satellite identification and parameters

Extended collection of information and parameters for PEGASUS DEB.

Object identification

Identified? True

Debris? True

Object name: PEGASUS DEB

International designator: 1994-029CY

Object number (NORAD): 24051

Object ID (CCSDS): 24051

Country: UNITED STATES OF AMERICA (US)

Current information (Y/N): Y

RCS size: SMALL

Orbital parameters

Period: 100.935 minutes

Inclination: 81.292 deg

SMA: 7181.062 km

Apoapsis: 1060.101 km

Periapsis: 545.753 km

RAAN: 23.7799 deg

Eccentricy: 0.0358128

Argument of periapsis: 83.7054 deg

Mean anomaly: 343.3745 deg

Mean motion: 14.26657659 rev/day

Mean motion (dot): 0.00007702 rev/day2

B* drag term: 0.0016018 1/REarth

Two-line elements (TLE)

Creation date: July 6, 2025, 10:36 p.m.

Reference frame: TEME

Reference center: EARTH

Epoch: July 6, 2025, 3:02 p.m. UTC

TLE line 0: 0 PEGASUS DEB

TLE line 1: 1 24051U 94029CY 25187.62678935 .00007702 00000-0 16018-2 0 9999

TLE line 2: 2 24051 81.2920 23.7799 0358128 83.7054 343.3745 14.26657659467622

Live tracking on map

Real-time ground track for satellite PEGASUS DEB.

In-orbit conjunctions

A list of the most updated potential collisions computed for object PEGASUS DEB.

Target Orbit TCA Probability of collision Miss distance Type
CZ-6A DEB LEO 2025-02-16 19:12:21 0.0005152384 219.0 (m) DEBRIS
THOR ABLESTAR DEB LEO 2024-11-10 03:37:03 0.0002507402 178.0 (m) DEBRIS

Associated space launch

PEGASUS DEB was lifted into orbit during the mission ‘Pegasus HAPS | Space Test Experiments Platform 2 (STEP-2)’, on board a Pegasus HAPS space rocket.

The launch took place on May 19, 1994, 5:03 p.m. from Edwards Air Force Base.

For more information about the launch, click the button.

Launch to space Pegasus HAPS | Space Test Experiments Platform 2 (STEP-2)
Pegasus HAPS | Space Test Experiments Platform 2 (STEP-2)

Agency: N/A

Status: Launch Successful

Launch date: May 19, 1994, 5:03 p.m. UTC

Rocket: Pegasus HAPS

Launch pad: Edwards Air Force Base

Location: Air launch to orbit

...

Latest news about this satellite

There are no fresh news available about this satellite. Check back as we update our databases every day.


Newsletter sign-up

Weekly statistics, charts and insights to help you stay on top of the space industry.